Regional Weather Roundup
Issued by NWS

Home | Current Version | Previous Version | Graphics & Text | Print | Product List | Glossary On
Versions: 1 2 3 4 5 6 7 8 9 10 11 12 13 14 15 16 17 18 19 20 21 22 23 24 25 26 27 28 29 30 31 32 33 34 35 36 37 38 39 40 41 42 43 44 45 46 47 48 49 50
000
ASUS43 KLOT 091708
RWRIL

ILLINOIS REGIONAL WEATHER ROUNDUP
NATIONAL WEATHER SERVICE CHICAGO/ROMEOVILLE IL
1100 AM CST TUE FEB 09 2016

NOTE: "FAIR" INDICATES FEW OR NO CLOUDS BELOW 12,000 FEET WITH NO
SIGNIFICANT WEATHER AND/OR OBSTRUCTIONS TO VISIBILITY.

* THESE STATIONS ARE NOT UNDER NWS QUALITY CONTROL. THEY ALSO MAY NOT
  REPORT WEATHER SUCH AS PRECIPITATION OR FOG.

ILZ001-002-007-009-015-016-024-091800-
NORTHWEST ILLINOIS

CITY           SKY/WX    TMP DP  RH WIND       PRES   REMARKS
MOLINE         CLOUDY    16   5  62 NW15      29.98R WCI   1
STERLING*      MOSUNNY   18   5  57 NW16G23   29.90S WCI   3
SAVANNA*       PTSUNNY   16   6  64 NW16G22   29.95S WCI   0
$$

ILZ003-004-008-010-011-017-018-091800-
NORTH CENTRAL ILLINOIS

CITY           SKY/WX    TMP DP  RH WIND       PRES   REMARKS
ROCKFORD       FLURRIES  15   7  70 NW17      29.91R WCI  -1
FREEPORT*      CLOUDY    13   6  72 NW17      29.92R WCI  -4
ROCHELLE*      LGT SNOW  15   9  75 NW20      29.89S WCI  -2
DE KALB*       LGT SNOW  15   8  75 NW12G17   29.86R WCI   1
$$

ILZ005-006-012>014-019>023-091800-
NORTHEAST ILLINOIS

CITY           SKY/WX    TMP DP  RH WIND       PRES   REMARKS
CHICAGO-OHARE  FLURRIES  17   9  70 NW14      29.83S WCI   3
CHICAGO-MIDWAY FLURRIES  18   8  65 NW16      29.84R WCI   3
AURORA         LGT SNOW  17   9  70 NW20G26   29.87R WCI   1
LANSING*       LGT SNOW  19  13  75 NW9G16    29.84R WCI   8
WAUKEGAN       PTSUNNY   17   7  64 NW9G21    29.82R WCI   6
DUPAGE AIRPORT LGT SNOW  15   6  67 NW14G23   29.85R WCI   0
KANKAKEE*      LGT SNOW  19  12  76 NW13G20   29.85S WCI   5
WHEELING       PTSUNNY   17   9  70 NW13G20   29.85S WCI   4
MORRIS*        LGT SNOW  17  10  74 NW12G18   29.85R WCI   4
ROMEOVILLE*    LGT SNOW  17   9  72 NW15      29.85R WCI   2
NORTHERLY ISL    N/A     19  10  68 NW9         N/A  WCI   8
$$

LMZ740>746-091800-
SOUTHERN LAKE MICHIGAN

STATION/POSITION SKY/WX   TEMP    WIND        PRES    VSBY  WAVE
                          AIR SEA DIR/SP/G                  HT/PER
                          (F)     (DEG/KT/KT) (MB)    (MI)  (FT/S)
HARRISON CRIB              18     310/ 16/ 20   N/A
BURNHAM HARBOR             20     310/  9/ 14   N/A
CALUMET HARBOR             17     290/ 10/ 16 1009.3R
BURNS HARBOR               20     320/ 16     1009.5R
MICHIGAN CITY              22     290/ 21/ 24   N/A
$$

ILZ025>027-034>036-040-047-049-050-058-095>099-091800-
WEST-CENTRAL ILLINOIS

CITY           SKY/WX    TMP DP  RH WIND       PRES   REMARKS
QUINCY         LGT SNOW  16   8  71 NW23G30   30.03R WCI  -2
GALESBURG*     CLOUDY    17   9  72 NW15      29.97R WCI   2
MACOMB*        CLOUDY    16  10  76 NW22G28   30.02R WCI  -1
JACKSONVILLE*  CLOUDY    20  12  70 NW17      29.99R WCI   5
PITTSFIELD*    LGT SNOW  17  11  77 NW14G23   30.03R WCI   3
$$

ILZ028>032-037-038-041>044-048-051>054-059>061-091800-
CENTRAL ILLINOIS

CITY           SKY/WX    TMP DP  RH WIND       PRES   REMARKS
PONTIAC        LGT SNOW  18  13  84 NW18      29.90R WCI   2
BLOOMINGTON    LGT SNOW  17  10  74 NW21      29.90R WCI   0
DECATUR        LGT SNOW  18  10  71 NW17      29.92R WCI   3
PEORIA         CLOUDY    17   6  62 NW14G21   29.96R WCI   3
LACON*         CLOUDY    17   7  65 NW13G20   29.93R WCI   3
LINCOLN*       CLOUDY    19  10  70 NW13G20   29.94S WCI   5
SPRINGFIELD    FLURRIES  19  10  68 NW16G28   29.97R WCI   4
TAYLORVILLE    LGT SNOW  19  12  73 NW16G24   29.96R WCI   5
$$

ILZ033-039-045-046-055>057-062-063-091800-
EAST-CENTRAL ILLINOIS

CITY           SKY/WX    TMP DP  RH WIND       PRES   REMARKS
CHAMPAIGN      LGT SNOW  19  13  77 NW18      29.88R WCI   4
RANTOUL*       LGT SNOW  20  15  80 NW21G26   29.87R WCI   4
MATTOON        LGT SNOW  18  12  77 NW21      29.89R WCI   1
PARIS*         CLOUDY    20  15  79 NW15G21   29.88R WCI   7
$$

ILZ079-100>102-091800-
SOUTHWEST ILLINOIS

CITY           SKY/WX    TMP DP  RH WIND       PRES   REMARKS
ALTON          LGT SNOW  18   9  68 NW18G28   30.01R WCI   2
BELLEVILLE     MOSUNNY   19  12  73 NW17G28   30.00R WCI   4
CAHOKIA*       LGT SNOW  21  11  65 NW21      30.03R WCI   5
SPARTA*        SNOW      19  15  85 NW9G20    30.01R VSB 1/2 WCI   7
$$

ILZ064>066-069>071-074>076-080>082-084>086-088>090-092>094-091800-
SOUTH-CENTRAL ILLINOIS

CITY           SKY/WX    TMP DP  RH WIND       PRES   REMARKS
CARBONDALE     LGT SNOW  22  14  71 NW14      30.00S WCI   9
CAIRO*         LGT SNOW  25  21  86 NW10      30.01R WCI  14
EFFINGHAM*     LGT SNOW  20  16  84 W14       29.95R VSB 1   WCI   6
MT. VERNON     CLOUDY    19  10  68 NW8       29.97R WCI   9
CENTRALIA*     FLURRIES  20  13  75 NW16      29.97R WCI   6
SALEM*         LGT SNOW  20  13  71 NW20G26   29.96R WCI   5
METROPOLIS*    LGT SNOW  23  18  78 N8        30.00R WCI  14
$$

ILZ067-068-072-073-078-083-087-091-091800-
SOUTHEAST ILLINOIS

CITY           SKY/WX    TMP DP  RH WIND       PRES   REMARKS
LAWRENCEVILLE  LGT SNOW  21  14  74 W15       29.92R WCI   8
FLORA*         LGT SNOW  23  16  75 NW12      29.95R WCI  11
FAIRFIELD*     FLURRIES  22  14  70 NW9       29.94S WCI  12
HARRISBURG*    CLOUDY    23  14  70 NW15G28   29.98R WCI  10
ROBINSON*      LGT SNOW  20  14  77 NW14      29.92S WCI   7
CARMI*         CLOUDY    22  15  74 W16       29.95R WCI   8
$$

ABBREVIATIONS USED IN REMARKS
   TC - TEMPERATURE IN CELSIUS
  WCI - WIND CHILL INDEX
   HX - HEAT INDEX
  VSB - VISIBILITY
$$




USA.gov is the U.S. government's official web portal to all federal, state and local government web resources and services.